Location: breval
(48.9474°N, 1.5319°E)
Time: 00:35:56
(UTC+00:00)

Envisat - Visible Passes

Search period start: 24 May 2018 00:00
Search period end: 03 June 2018 00:00
Orbit: 764 x 766 km, 98.2° (Epoch: 23 May)

Date Brightness Start Highest point End Pass type
(mag) Time Alt. Az. Time Alt. Az. Time Alt. Az.
24 May 5.5 20:25:01 10° SW 20:28:36 19° W 20:32:12 10° NW visible
26 May 5.9 20:52:59 10° WSW 20:54:33 11° W 20:56:07 10° WNW visible
29 May 5.7 20:40:32 10° WSW 20:43:13 14° W 20:45:54 10° NW visible
01 Jun 5.6 20:28:32 10° SW 20:31:55 18° W 20:35:18 10° NW visible
